Location: Newark
(34.6283°N, 36.0776°E)
Time: 03:24:03
(UTC+00:00)

Tiros 1 - Pass Details

Date: 26 October 2019
Orbit: 630 x 664 km, 48.4° (Epoch: 19 November)

Event Time Altitude Azimuth Distance (km) Brightness Sun altitude
Exits shadow 02:43:59 13° 318° (NW) 1,871 9.1 -14.2°
Maximum altitude 02:48:06 51° 32° (NNE) 832 7.9 -13.4°
Drops below altitude 10° 02:52:46 10° 109° (ESE) 2,073 11.1 -12.4°
Sets 02:55:10 0° 114° (ESE) 2,981 12.1 -12.0°
